VIV409 SEGU-MMMX

Flight info

Callsign VIV409
Flight time N/A
Altitude 34000
Route RENAR2B RENAR UL207 LIXAS UL203 COCOS/N0455F360 UL203 ALSAL UL318 IZT UT157 LARLO LARLO4A
Aircraft A320/M-SDE3FGHIRWY/LB1

Departure

Time 2026-04-27 13:40
Airport José Joaquín de Olmedo International Airport (SEGU)

Arrival

Time N/A
Airport Mexico City Benito Juárez International Airport (MMMX)
Time Latitude Longitude Altitude Speed Heading
2026-04-27 13:11 -2.14940 -79.88398 29 ft 0 kts 272°
2026-04-27 13:31 -2.14940 -79.88384 28 ft 3 kts 283°
2026-04-27 13:31 -2.14945 -79.88363 28 ft 4 kts 287°
2026-04-27 13:31 -2.14954 -79.88337 28 ft 4 kts 288°
2026-04-27 13:32 -2.14960 -79.88311 28 ft 4 kts 268°
2026-04-27 13:32 -2.14956 -79.88295 28 ft 1 kts 210°
2026-04-27 13:32 -2.14955 -79.88295 28 ft 0 kts 210°
2026-04-27 13:34 -2.14957 -79.88296 28 ft 1 kts 210°
2026-04-27 13:35 -2.14974 -79.88306 28 ft 4 kts 210°
2026-04-27 13:35 -2.15011 -79.88327 28 ft 8 kts 210°
2026-04-27 13:35 -2.15068 -79.88359 28 ft 11 kts 210°
2026-04-27 13:35 -2.15145 -79.88395 28 ft 14 kts 179°
2026-04-27 13:36 -2.15207 -79.88318 28 ft 16 kts 118°
2026-04-27 13:36 -2.15274 -79.88221 28 ft 15 kts 155°
2026-04-27 13:36 -2.15378 -79.88265 27 ft 18 kts 209°
2026-04-27 13:36 -2.15495 -79.88332 28 ft 21 kts 210°
2026-04-27 13:37 -2.15628 -79.88410 27 ft 23 kts 209°
2026-04-27 13:37 -2.15771 -79.88492 28 ft 24 kts 210°
2026-04-27 13:37 -2.15920 -79.88576 28 ft 25 kts 210°
2026-04-27 13:37 -2.16074 -79.88665 29 ft 26 kts 210°
2026-04-27 13:38 -2.16232 -79.88760 28 ft 27 kts 211°
2026-04-27 13:38 -2.16397 -79.88856 28 ft 28 kts 207°
2026-04-27 13:38 -2.16547 -79.88938 28 ft 25 kts 210°
2026-04-27 13:38 -2.16697 -79.89023 28 ft 23 kts 207°
2026-04-27 13:39 -2.16781 -79.89023 28 ft 12 kts 109°
2026-04-27 13:39 -2.16746 -79.88946 27 ft 14 kts 34°
2026-04-27 13:39 -2.16615 -79.88870 27 ft 44 kts 30°
2026-04-27 13:39 -2.16141 -79.88597 29 ft 109 kts 30°
2026-04-27 13:40 -2.15329 -79.88130 35 ft 157 kts 30°
2026-04-27 13:40 -2.14381 -79.87571 612 ft 156 kts 29°
2026-04-27 13:40 -2.13409 -79.87035 1114 ft 161 kts 28°
2026-04-27 13:40 -2.12385 -79.86470 1524 ft 177 kts 29°
2026-04-27 13:41 -2.11263 -79.85843 1710 ft 198 kts 29°
2026-04-27 13:41 -2.10002 -79.85137 1927 ft 218 kts 29°
2026-04-27 13:41 -2.08583 -79.84427 2136 ft 240 kts 14°
2026-04-27 13:41 -2.06872 -79.84502 2447 ft 259 kts 336°
2026-04-27 13:42 -2.05331 -79.85486 3095 ft 267 kts 320°
2026-04-27 13:42 -2.03867 -79.86648 3900 ft 270 kts 321°
2026-04-27 13:42 -2.02385 -79.87821 4690 ft 273 kts 321°
2026-04-27 13:42 -2.00891 -79.89007 5429 ft 276 kts 321°
2026-04-27 13:43 -1.99377 -79.90210 6150 ft 280 kts 321°
2026-04-27 13:43 -1.97843 -79.91428 6827 ft 283 kts 321°
2026-04-27 13:43 -1.96292 -79.92658 7458 ft 287 kts 321°
2026-04-27 13:43 -1.94720 -79.93903 8114 ft 290 kts 321°
2026-04-27 13:44 -1.93132 -79.95162 8749 ft 293 kts 321°
2026-04-27 13:44 -1.91528 -79.96437 9393 ft 296 kts 321°
2026-04-27 13:44 -1.89925 -79.97711 10060 ft 300 kts 321°
2026-04-27 13:44 -1.88241 -79.99051 10320 ft 320 kts 321°
2026-04-27 13:45 -1.86439 -80.00487 10447 ft 342 kts 321°
2026-04-27 13:45 -1.84536 -80.02000 10801 ft 353 kts 321°
2026-04-27 13:45 -1.82602 -80.03537 11268 ft 357 kts 321°
2026-04-27 13:45 -1.80646 -80.05093 11770 ft 361 kts 321°
2026-04-27 13:46 -1.78669 -80.06664 12267 ft 364 kts 321°
2026-04-27 13:46 -1.76672 -80.08249 12759 ft 368 kts 321°
2026-04-27 13:46 -1.74685 -80.09827 13236 ft 371 kts 321°
2026-04-27 13:46 -1.72655 -80.11443 13714 ft 374 kts 321°
2026-04-27 13:47 -1.70603 -80.13075 14149 ft 378 kts 322°
2026-04-27 13:47 -1.68541 -80.14713 14596 ft 380 kts 322°
2026-04-27 13:47 -1.66461 -80.16366 15037 ft 383 kts 322°
2026-04-27 13:47 -1.64370 -80.18029 15468 ft 386 kts 322°
2026-04-27 13:48 -1.62261 -80.19706 15897 ft 388 kts 322°
2026-04-27 13:48 -1.60137 -80.21395 16334 ft 391 kts 322°
2026-04-27 13:48 -1.57994 -80.23098 16754 ft 394 kts 322°
2026-04-27 13:48 -1.55843 -80.24746 17168 ft 396 kts 325°
2026-04-27 13:49 -1.53550 -80.26353 17590 ft 399 kts 327°
2026-04-27 13:49 -1.51254 -80.27867 18001 ft 401 kts 328°
2026-04-27 13:49 -1.48895 -80.29382 18435 ft 403 kts 328°
2026-04-27 13:49 -1.46528 -80.30898 18818 ft 405 kts 328°
2026-04-27 13:50 -1.44156 -80.32433 19179 ft 407 kts 328°
2026-04-27 13:50 -1.41778 -80.33992 19555 ft 410 kts 327°
2026-04-27 13:50 -1.39397 -80.35571 19934 ft 412 kts 327°
2026-04-27 13:50 -1.37008 -80.37165 20299 ft 414 kts 327°
2026-04-27 13:51 -1.34611 -80.38770 20665 ft 416 kts 327°
2026-04-27 13:51 -1.32197 -80.40386 21039 ft 418 kts 327°
2026-04-27 13:51 -1.29774 -80.42007 21390 ft 421 kts 327°
2026-04-27 13:51 -1.27333 -80.43639 21735 ft 423 kts 327°
2026-04-27 13:52 -1.24876 -80.45277 22076 ft 425 kts 327°
2026-04-27 13:52 -1.22411 -80.46916 22393 ft 427 kts 327°
2026-04-27 13:52 -1.19930 -80.48565 22725 ft 429 kts 327°
2026-04-27 13:52 -1.17440 -80.50220 23050 ft 431 kts 327°
2026-04-27 13:53 -1.12418 -80.53557 23661 ft 435 kts 327°
2026-04-27 13:53 -1.09901 -80.55234 23972 ft 435 kts 327°
2026-04-27 13:53 -1.07413 -80.56895 24262 ft 436 kts 327°
2026-04-27 13:54 -1.04887 -80.58582 24526 ft 438 kts 327°
2026-04-27 13:54 -1.02349 -80.60273 24788 ft 439 kts 327°
2026-04-27 13:54 -0.99802 -80.61968 25036 ft 441 kts 327°
2026-04-27 13:54 -0.97242 -80.63670 25322 ft 442 kts 327°
2026-04-27 13:55 -0.94683 -80.65381 25567 ft 444 kts 325°
2026-04-27 13:55 -0.92293 -80.67346 25806 ft 446 kts 316°
2026-04-27 13:55 -0.90098 -80.69547 26033 ft 448 kts 315°
2026-04-27 13:55 -0.87895 -80.71769 26260 ft 450 kts 315°
2026-04-27 13:56 -0.85683 -80.73994 26498 ft 452 kts 315°
2026-04-27 13:56 -0.83459 -80.76227 26730 ft 453 kts 315°
2026-04-27 13:56 -0.81228 -80.78464 26983 ft 454 kts 315°
2026-04-27 13:56 -0.78993 -80.80703 27191 ft 456 kts 315°
2026-04-27 13:57 -0.76743 -80.82955 27439 ft 457 kts 315°
2026-04-27 13:57 -0.74493 -80.85206 27687 ft 459 kts 315°
2026-04-27 13:57 -0.72230 -80.87470 27920 ft 460 kts 315°
2026-04-27 13:57 -0.70003 -80.89703 28249 ft 459 kts 315°
2026-04-27 13:58 -0.67750 -80.91967 28619 ft 459 kts 315°
2026-04-27 13:58 -0.65503 -80.94228 28963 ft 458 kts 315°
2026-04-27 13:58 -0.63262 -80.96481 29328 ft 456 kts 315°
2026-04-27 13:58 -0.61020 -80.98731 29678 ft 456 kts 315°
2026-04-27 13:59 -0.58785 -81.00972 30030 ft 455 kts 314°
2026-04-27 13:59 -0.56551 -81.03213 30341 ft 454 kts 314°
2026-04-27 13:59 -0.54324 -81.05449 30678 ft 452 kts 315°
2026-04-27 13:59 -0.52111 -81.07672 31024 ft 450 kts 315°
2026-04-27 14:00 -0.49934 -81.09853 31381 ft 447 kts 315°
2026-04-27 14:00 -0.47744 -81.12050 31747 ft 445 kts 315°
2026-04-27 14:00 -0.45559 -81.14243 32079 ft 444 kts 315°
2026-04-27 14:00 -0.43381 -81.16431 32451 ft 442 kts 315°
2026-04-27 14:01 -0.41222 -81.18600 32827 ft 440 kts 315°
2026-04-27 14:01 -0.39068 -81.20760 33227 ft 437 kts 315°
2026-04-27 14:01 -0.36925 -81.22908 33576 ft 435 kts 315°
2026-04-27 14:01 -0.34790 -81.25048 33897 ft 433 kts 315°
2026-04-27 14:02 -0.32666 -81.27182 33996 ft 435 kts 315°
2026-04-27 14:02 -0.28378 -81.31486 34008 ft 442 kts 315°
2026-04-27 14:03 -0.24016 -81.35866 34008 ft 445 kts 315°
2026-04-27 14:03 -0.19646 -81.40242 34008 ft 446 kts 315°
2026-04-27 14:04 -0.15253 -81.44642 34007 ft 446 kts 315°
2026-04-27 14:04 -0.10833 -81.48982 34006 ft 445 kts 316°
2026-04-27 14:05 -0.06331 -81.53220 34013 ft 445 kts 317°
2026-04-27 14:05 -0.01846 -81.57419 34013 ft 444 kts 316°
2026-04-27 14:06 0.02653 -81.61674 34006 ft 445 kts 316°
2026-04-27 14:06 0.07143 -81.65939 33999 ft 446 kts 316°
2026-04-27 14:07 0.11642 -81.70219 34009 ft 446 kts 316°
2026-04-27 14:07 0.16112 -81.74467 34014 ft 446 kts 316°
2026-04-27 14:08 0.20611 -81.78738 34016 ft 445 kts 316°
2026-04-27 14:08 0.25100 -81.82997 34011 ft 445 kts 316°
2026-04-27 14:09 0.29592 -81.87252 34002 ft 445 kts 316°
2026-04-27 14:09 0.34066 -81.91492 34007 ft 446 kts 316°
2026-04-27 14:10 0.38556 -81.95764 34010 ft 446 kts 316°
2026-04-27 14:10 0.43054 -82.00036 34015 ft 445 kts 316°
2026-04-27 14:11 0.46785 -82.03580 34010 ft 445 kts 316°
2026-04-27 14:11 0.51279 -82.07853 34012 ft 445 kts 316°
2026-04-27 14:12 0.55780 -82.12119 34008 ft 446 kts 316°
2026-04-27 14:12 0.60284 -82.16382 34009 ft 445 kts 316°
2026-04-27 14:13 0.64772 -82.20642 34015 ft 445 kts 316°
2026-04-27 14:13 0.69230 -82.24878 34009 ft 445 kts 316°
2026-04-27 14:14 0.73722 -82.29148 34005 ft 445 kts 316°
2026-04-27 14:14 0.78211 -82.33406 34004 ft 445 kts 315°
2026-04-27 14:15 0.82697 -82.37666 34003 ft 445 kts 315°
2026-04-27 14:15 0.87153 -82.41899 34011 ft 444 kts 316°
2026-04-27 14:16 0.91643 -82.46151 34008 ft 444 kts 316°
2026-04-27 14:16 0.96130 -82.50408 34007 ft 444 kts 316°
2026-04-27 14:17 1.00614 -82.54672 34002 ft 445 kts 316°
2026-04-27 14:17 1.05100 -82.58933 34004 ft 444 kts 315°
2026-04-27 14:18 1.09555 -82.63167 34009 ft 444 kts 315°
2026-04-27 14:18 1.14031 -82.67422 34009 ft 444 kts 315°
2026-04-27 14:19 1.18510 -82.71674 34005 ft 444 kts 315°
2026-04-27 14:19 1.22993 -82.75929 33999 ft 444 kts 315°
2026-04-27 14:20 1.27477 -82.80185 34002 ft 444 kts 315°
2026-04-27 14:20 1.31930 -82.84414 34004 ft 444 kts 315°
2026-04-27 14:21 1.36405 -82.88668 34006 ft 444 kts 315°
2026-04-27 14:21 1.40881 -82.92916 34004 ft 444 kts 316°
2026-04-27 14:22 1.45771 -82.96696 34003 ft 444 kts 322°
2026-04-27 14:22 1.50739 -83.00372 34004 ft 445 kts 322°
2026-04-27 14:23 1.55715 -83.04059 34000 ft 445 kts 322°
2026-04-27 14:23 1.60696 -83.07744 34002 ft 445 kts 322°
2026-04-27 14:24 1.65637 -83.11396 34002 ft 445 kts 322°
2026-04-27 14:24 1.70617 -83.15080 34003 ft 445 kts 322°
2026-04-27 14:25 1.75593 -83.18764 34000 ft 445 kts 322°
2026-04-27 14:25 1.80569 -83.22453 33999 ft 445 kts 322°
2026-04-27 14:26 1.85549 -83.26144 33996 ft 445 kts 322°
2026-04-27 14:26 1.90534 -83.29834 33998 ft 445 kts 321°
2026-04-27 14:27 1.95479 -83.33498 34003 ft 445 kts 321°
2026-04-27 14:27 2.00454 -83.37182 34001 ft 444 kts 321°
2026-04-27 14:28 2.05427 -83.40862 34001 ft 444 kts 321°
2026-04-27 14:28 2.10399 -83.44539 33999 ft 444 kts 321°
2026-04-27 14:29 2.15365 -83.48216 33996 ft 444 kts 321°
2026-04-27 14:29 2.20299 -83.51874 33998 ft 444 kts 321°
2026-04-27 14:30 2.25268 -83.55556 33988 ft 444 kts 321°
2026-04-27 14:30 2.30247 -83.59246 33992 ft 445 kts 321°
2026-04-27 14:31 2.35233 -83.62939 33989 ft 446 kts 321°
2026-04-27 14:31 2.40185 -83.66605 33992 ft 446 kts 321°
2026-04-27 14:32 2.45176 -83.70306 33996 ft 446 kts 321°
2026-04-27 14:32 2.50167 -83.74006 33995 ft 446 kts 321°
2026-04-27 14:33 2.55163 -83.77711 33993 ft 446 kts 321°
2026-04-27 14:33 2.60121 -83.81385 33996 ft 446 kts 321°
2026-04-27 14:34 2.65114 -83.85086 33996 ft 446 kts 321°
2026-04-27 14:34 2.70107 -83.88781 34004 ft 446 kts 322°
2026-04-27 14:35 2.75094 -83.92490 34001 ft 446 kts 322°
2026-04-27 14:35 2.80049 -83.96167 33999 ft 446 kts 322°
2026-04-27 14:36 2.85036 -83.99870 33995 ft 446 kts 322°
2026-04-27 14:36 2.90026 -84.03568 33994 ft 446 kts 322°
2026-04-27 14:37 2.95010 -84.07260 33998 ft 446 kts 322°
2026-04-27 14:37 2.99990 -84.10958 33997 ft 446 kts 322°
2026-04-27 14:38 3.04980 -84.14657 33996 ft 446 kts 322°
2026-04-27 14:38 3.09966 -84.18351 33994 ft 446 kts 322°
2026-04-27 14:39 3.14924 -84.22036 33997 ft 446 kts 322°
2026-04-27 14:39 3.19913 -84.25749 33997 ft 446 kts 322°
2026-04-27 14:40 3.24908 -84.29452 33993 ft 446 kts 322°
2026-04-27 14:40 3.29913 -84.33155 33993 ft 447 kts 322°
2026-04-27 14:41 3.34877 -84.36844 33989 ft 447 kts 322°
2026-04-27 14:41 3.39876 -84.40558 33990 ft 447 kts 322°
2026-04-27 14:42 3.44878 -84.44272 33993 ft 447 kts 322°
2026-04-27 14:42 3.49881 -84.47992 33995 ft 447 kts 322°
2026-04-27 14:43 3.54877 -84.51709 34001 ft 447 kts 322°
2026-04-27 14:43 3.59848 -84.55398 34001 ft 447 kts 322°
2026-04-27 14:44 3.64846 -84.59114 33996 ft 447 kts 322°
2026-04-27 14:44 3.69848 -84.62834 33997 ft 447 kts 322°
2026-04-27 14:45 3.74852 -84.66547 33995 ft 447 kts 322°
2026-04-27 14:45 3.79847 -84.70257 33991 ft 447 kts 321°
2026-04-27 14:46 3.84824 -84.73953 33996 ft 448 kts 321°
2026-04-27 14:46 3.89828 -84.77677 33995 ft 448 kts 321°
2026-04-27 14:47 3.94839 -84.81408 33993 ft 448 kts 321°
2026-04-27 14:47 3.99843 -84.85137 33994 ft 448 kts 321°
2026-04-27 14:48 4.04816 -84.88839 33993 ft 448 kts 321°
2026-04-27 14:48 4.12327 -84.94422 33994 ft 448 kts 321°
2026-04-27 14:49 4.17336 -84.98150 33994 ft 448 kts 321°
2026-04-27 14:49 4.22337 -85.01873 33995 ft 448 kts 321°
2026-04-27 14:50 4.27355 -85.05599 33990 ft 448 kts 321°
2026-04-27 14:50 4.32330 -85.09308 33988 ft 449 kts 321°
2026-04-27 14:51 4.37341 -85.13047 33989 ft 449 kts 321°
2026-04-27 14:51 4.41539 -85.16181 33991 ft 449 kts 321°
2026-04-27 14:52 4.47371 -85.20521 33991 ft 449 kts 321°
2026-04-27 14:52 4.52395 -85.24259 33995 ft 449 kts 321°
2026-04-27 14:53 4.57414 -85.28003 33993 ft 449 kts 321°
2026-04-27 14:53 4.62399 -85.31729 33991 ft 450 kts 321°
2026-04-27 14:54 4.67425 -85.35470 33993 ft 450 kts 321°
2026-04-27 14:54 4.72463 -85.39216 33993 ft 450 kts 321°
2026-04-27 14:55 4.77479 -85.42967 33990 ft 450 kts 321°
2026-04-27 14:55 4.82498 -85.46725 33994 ft 450 kts 321°
2026-04-27 14:56 4.87523 -85.50473 33996 ft 450 kts 321°
2026-04-27 14:56 4.92550 -85.54223 33997 ft 450 kts 321°
2026-04-27 14:57 4.97540 -85.57944 34000 ft 450 kts 321°
2026-04-27 14:57 5.02569 -85.61702 33996 ft 450 kts 321°
2026-04-27 14:58 5.07602 -85.65454 33995 ft 451 kts 321°
2026-04-27 14:58 5.12639 -85.69207 33995 ft 451 kts 321°
2026-04-27 14:59 5.17676 -85.72968 33996 ft 451 kts 321°
2026-04-27 14:59 5.22677 -85.76707 33998 ft 451 kts 321°
2026-04-27 15:00 5.27718 -85.80477 33999 ft 451 kts 321°
2026-04-27 15:00 5.32749 -85.84244 34002 ft 451 kts 321°
2026-04-27 15:01 5.36942 -85.87372 33997 ft 452 kts 321°
2026-04-27 15:01 5.41989 -85.91147 33995 ft 452 kts 321°
2026-04-27 15:02 5.47038 -85.94926 33995 ft 453 kts 321°
2026-04-27 15:02 5.52094 -85.98711 33997 ft 453 kts 321°
2026-04-27 15:03 5.57154 -86.02493 33995 ft 453 kts 321°
2026-04-27 15:03 5.62176 -86.06249 33997 ft 453 kts 321°
2026-04-27 15:04 5.67235 -86.10037 34000 ft 453 kts 321°
2026-04-27 15:04 5.72288 -86.13822 34004 ft 453 kts 321°
2026-04-27 15:05 5.77349 -86.17618 34005 ft 454 kts 321°
2026-04-27 15:05 5.82407 -86.21410 34000 ft 454 kts 321°
2026-04-27 15:06 5.87476 -86.25209 33997 ft 454 kts 321°
2026-04-27 15:06 5.92541 -86.28996 33998 ft 454 kts 321°
2026-04-27 15:07 5.97582 -86.32772 33998 ft 454 kts 321°
2026-04-27 15:07 6.02641 -86.36578 33999 ft 454 kts 321°
2026-04-27 15:08 6.07710 -86.40381 34005 ft 454 kts 321°
2026-04-27 15:08 6.12787 -86.44181 34003 ft 454 kts 321°
2026-04-27 15:09 6.17828 -86.47955 34003 ft 455 kts 321°
2026-04-27 15:09 6.22896 -86.51766 34000 ft 455 kts 321°
2026-04-27 15:10 6.27966 -86.55581 33997 ft 455 kts 321°
2026-04-27 15:10 6.33042 -86.59391 33992 ft 455 kts 321°
2026-04-27 15:11 6.38120 -86.63202 33998 ft 455 kts 321°
2026-04-27 15:11 6.43167 -86.66979 34000 ft 455 kts 321°
2026-04-27 15:12 6.48244 -86.70794 33999 ft 455 kts 320°
2026-04-27 15:12 6.53315 -86.74613 33998 ft 455 kts 321°
2026-04-27 15:13 6.58390 -86.78437 33998 ft 456 kts 320°
2026-04-27 15:13 6.63472 -86.82260 33997 ft 456 kts 321°
2026-04-27 15:14 6.68523 -86.86053 33995 ft 456 kts 321°
2026-04-27 15:14 6.73605 -86.89874 33995 ft 456 kts 321°
2026-04-27 15:15 6.78685 -86.93697 34001 ft 456 kts 320°
2026-04-27 15:15 6.83764 -86.97525 34005 ft 456 kts 321°
2026-04-27 15:16 6.88840 -87.01345 34000 ft 456 kts 321°
2026-04-27 15:16 6.93919 -87.05169 33997 ft 456 kts 321°
2026-04-27 15:17 6.98973 -87.08976 33992 ft 456 kts 321°
2026-04-27 15:17 7.04061 -87.12808 33990 ft 456 kts 321°
2026-04-27 15:18 7.09151 -87.16642 33994 ft 456 kts 321°
2026-04-27 15:18 7.14200 -87.20453 33991 ft 456 kts 321°
2026-04-27 15:19 7.19281 -87.24284 33993 ft 456 kts 321°
2026-04-27 15:19 7.24369 -87.28116 33989 ft 456 kts 321°
2026-04-27 15:20 7.29453 -87.31953 33990 ft 456 kts 321°
2026-04-27 15:20 7.34532 -87.35789 33996 ft 456 kts 321°
2026-04-27 15:21 7.39581 -87.39601 33994 ft 455 kts 321°
2026-04-27 15:21 7.44655 -87.43436 33992 ft 455 kts 321°
2026-04-27 15:22 7.49719 -87.47269 33993 ft 455 kts 321°
2026-04-27 15:22 7.54784 -87.51095 33991 ft 455 kts 321°
2026-04-27 15:23 7.59818 -87.54896 33994 ft 455 kts 321°
2026-04-27 15:23 7.64882 -87.58727 33996 ft 454 kts 321°
2026-04-27 15:24 7.69938 -87.62559 33991 ft 454 kts 321°
2026-04-27 15:24 7.74968 -87.66360 33991 ft 454 kts 321°
2026-04-27 15:25 7.80023 -87.70186 33986 ft 454 kts 321°
2026-04-27 15:25 7.85079 -87.74018 33987 ft 453 kts 321°
2026-04-27 15:26 7.90122 -87.77829 33986 ft 453 kts 321°
2026-04-27 15:26 7.95161 -87.81647 33986 ft 452 kts 321°
2026-04-27 15:27 8.00188 -87.85461 33981 ft 452 kts 321°
2026-04-27 15:27 8.05217 -87.89272 33976 ft 452 kts 321°
2026-04-27 15:28 8.10210 -87.93065 33980 ft 452 kts 321°
2026-04-27 15:28 8.15238 -87.96878 33974 ft 452 kts 321°
2026-04-27 15:29 8.20268 -88.00690 33976 ft 452 kts 321°
2026-04-27 15:29 8.25302 -88.04504 33977 ft 452 kts 321°
2026-04-27 15:30 8.30300 -88.08297 33978 ft 452 kts 321°
2026-04-27 15:30 8.35321 -88.12115 33986 ft 452 kts 322°
2026-04-27 15:31 8.40350 -88.15937 33979 ft 452 kts 322°
2026-04-27 15:31 8.45385 -88.19761 33980 ft 452 kts 322°
2026-04-27 15:32 8.50412 -88.23582 33974 ft 452 kts 322°
2026-04-27 15:32 8.55407 -88.27374 33977 ft 452 kts 322°
2026-04-27 15:33 8.60429 -88.31202 33974 ft 452 kts 322°
2026-04-27 15:33 8.65454 -88.35035 33975 ft 452 kts 322°
2026-04-27 15:34 8.70474 -88.38857 33975 ft 452 kts 322°
2026-04-27 15:34 8.75464 -88.42653 33973 ft 452 kts 321°
2026-04-27 15:35 8.80476 -88.46482 33973 ft 452 kts 322°
2026-04-27 15:35 8.85496 -88.50305 33979 ft 451 kts 322°
2026-04-27 15:36 8.90513 -88.54129 33974 ft 451 kts 322°
2026-04-27 15:36 8.95493 -88.57928 33973 ft 450 kts 322°
2026-04-27 15:37 9.00494 -88.61749 33973 ft 450 kts 323°
2026-04-27 15:37 9.05500 -88.65566 33975 ft 450 kts 322°
2026-04-27 15:38 9.10509 -88.69388 33975 ft 451 kts 323°
2026-04-27 15:38 9.15489 -88.73187 33974 ft 451 kts 322°
2026-04-27 15:39 9.20492 -88.77009 33972 ft 451 kts 323°
2026-04-27 15:39 9.25500 -88.80843 33971 ft 451 kts 322°
2026-04-27 15:40 9.30510 -88.84673 33972 ft 451 kts 323°
2026-04-27 15:40 9.35526 -88.88507 33974 ft 451 kts 323°
2026-04-27 15:41 9.40496 -88.92309 33974 ft 450 kts 323°
2026-04-27 15:41 9.45498 -88.96138 33975 ft 450 kts 323°
2026-04-27 15:42 9.50494 -88.99973 33974 ft 450 kts 322°
2026-04-27 15:42 9.55499 -89.03805 33972 ft 450 kts 322°
2026-04-27 15:43 9.60506 -89.07631 33968 ft 450 kts 322°
2026-04-27 15:43 9.65506 -89.11467 33967 ft 450 kts 322°
2026-04-27 15:44 9.70470 -89.15284 33966 ft 450 kts 322°
2026-04-27 15:44 9.75476 -89.19119 33968 ft 450 kts 322°
2026-04-27 15:45 9.80483 -89.22955 33968 ft 450 kts 322°
2026-04-27 15:45 9.85475 -89.26796 33977 ft 450 kts 322°
2026-04-27 15:46 9.90451 -89.30625 33983 ft 448 kts 322°
2026-04-27 15:46 9.95398 -89.34421 33981 ft 448 kts 323°
2026-04-27 15:47 10.00362 -89.38235 33982 ft 447 kts 322°
2026-04-27 15:47 10.05326 -89.42045 33978 ft 447 kts 323°
2026-04-27 15:48 10.10291 -89.45857 33977 ft 447 kts 322°
2026-04-27 15:49 10.17711 -89.51586 33970 ft 446 kts 322°
2026-04-27 15:49 10.22622 -89.55375 33977 ft 446 kts 323°
2026-04-27 15:50 10.27572 -89.59169 33974 ft 445 kts 323°
2026-04-27 15:50 10.32531 -89.62937 33976 ft 444 kts 323°
2026-04-27 15:51 10.37484 -89.66708 33972 ft 444 kts 323°
2026-04-27 15:51 10.42393 -89.70463 33968 ft 444 kts 323°
2026-04-27 15:52 10.47330 -89.74252 33973 ft 444 kts 323°
2026-04-27 15:52 10.52271 -89.78031 33973 ft 445 kts 323°
2026-04-27 15:53 10.57217 -89.81812 33972 ft 445 kts 323°
2026-04-27 15:53 10.62132 -89.85574 33974 ft 444 kts 323°
2026-04-27 15:54 10.67070 -89.89355 33974 ft 444 kts 323°
2026-04-27 15:54 10.71167 -89.92498 33975 ft 444 kts 323°
2026-04-27 15:55 10.76103 -89.96283 33977 ft 444 kts 323°
2026-04-27 15:55 10.81033 -90.00068 33973 ft 444 kts 323°
2026-04-27 15:56 10.85936 -90.03825 33973 ft 444 kts 323°
2026-04-27 15:56 10.90870 -90.07610 33976 ft 444 kts 323°
2026-04-27 15:57 10.95805 -90.11399 33977 ft 444 kts 323°
2026-04-27 15:57 11.00734 -90.15188 33977 ft 443 kts 323°
2026-04-27 15:58 11.05627 -90.18959 33977 ft 443 kts 323°
2026-04-27 15:58 11.10555 -90.22741 33974 ft 443 kts 323°
2026-04-27 15:59 11.15470 -90.26527 33973 ft 443 kts 323°
2026-04-27 15:59 11.20389 -90.30314 33972 ft 443 kts 323°
2026-04-27 16:00 11.25313 -90.34106 33967 ft 443 kts 323°
2026-04-27 16:00 11.30200 -90.37868 33975 ft 443 kts 323°
2026-04-27 16:01 11.35118 -90.41662 33978 ft 442 kts 324°
2026-04-27 16:01 11.40026 -90.45452 33979 ft 442 kts 324°
2026-04-27 16:02 11.44928 -90.49228 33976 ft 441 kts 324°
2026-04-27 16:02 11.49827 -90.53006 33973 ft 441 kts 324°
2026-04-27 16:03 11.54687 -90.56752 33975 ft 441 kts 324°
2026-04-27 16:03 11.59578 -90.60533 33975 ft 441 kts 324°
2026-04-27 16:04 11.64472 -90.64317 33967 ft 441 kts 324°
2026-04-27 16:04 11.69327 -90.68072 33972 ft 440 kts 324°
2026-04-27 16:05 11.74208 -90.71852 33973 ft 440 kts 324°
2026-04-27 16:05 11.79087 -90.75623 33970 ft 440 kts 324°
2026-04-27 16:06 11.83971 -90.79392 33961 ft 440 kts 324°
2026-04-27 16:06 11.88854 -90.83168 33960 ft 440 kts 324°
2026-04-27 16:07 11.93692 -90.86928 33962 ft 440 kts 324°
2026-04-27 16:07 11.98574 -90.90714 33962 ft 440 kts 324°
2026-04-27 16:08 12.03444 -90.94498 33958 ft 440 kts 324°
2026-04-27 16:08 12.08318 -90.98279 33968 ft 440 kts 324°
2026-04-27 16:09 12.13192 -91.02057 33967 ft 438 kts 324°
2026-04-27 16:09 12.20442 -91.07688 33959 ft 438 kts 324°
2026-04-27 16:10 12.30136 -91.15230 33946 ft 437 kts 324°
2026-04-27 16:11 12.37406 -91.20881 33950 ft 438 kts 324°
2026-04-27 16:12 12.44682 -91.26543 33956 ft 438 kts 324°
2026-04-27 16:13 12.51955 -91.32212 33960 ft 438 kts 324°
2026-04-27 16:13 12.59199 -91.37856 33961 ft 438 kts 324°
2026-04-27 16:14 12.68888 -91.45416 33958 ft 437 kts 324°
2026-04-27 16:15 12.78558 -91.52977 33961 ft 437 kts 325°
2026-04-27 16:16 12.88183 -91.60500 33960 ft 436 kts 324°
2026-04-27 16:17 12.97816 -91.68048 33956 ft 435 kts 325°
2026-04-27 16:18 13.07416 -91.75567 33952 ft 435 kts 324°
2026-04-27 16:19 13.12227 -91.79340 33952 ft 435 kts 324°
2026-04-27 16:20 13.21816 -91.86858 33945 ft 435 kts 324°
2026-04-27 16:21 13.29028 -91.92527 33939 ft 434 kts 324°
2026-04-27 16:22 13.38584 -92.00046 33944 ft 433 kts 324°
2026-04-27 16:22 13.45765 -92.05688 33942 ft 433 kts 324°
2026-04-27 16:23 13.52939 -92.11332 33947 ft 432 kts 324°
2026-04-27 16:24 13.57698 -92.15089 33948 ft 431 kts 324°
2026-04-27 16:25 13.67187 -92.22573 33940 ft 430 kts 324°
2026-04-27 16:26 13.76694 -92.30080 33939 ft 430 kts 324°
2026-04-27 16:27 13.86143 -92.37542 33955 ft 428 kts 324°
2026-04-27 16:28 13.97916 -92.46864 33955 ft 426 kts 324°
2026-04-27 16:29 14.09650 -92.56156 33956 ft 425 kts 324°
2026-04-27 16:30 14.19000 -92.63556 33957 ft 425 kts 324°
2026-04-27 16:31 14.29932 -92.73804 33960 ft 427 kts 315°
2026-04-27 16:32 14.36012 -92.80535 33951 ft 427 kts 315°
2026-04-27 16:33 14.42066 -92.87248 33956 ft 428 kts 315°
2026-04-27 16:33 14.46120 -92.91748 33950 ft 428 kts 315°
2026-04-27 16:34 14.50166 -92.96249 33947 ft 427 kts 315°
2026-04-27 16:34 14.54219 -93.00757 33948 ft 427 kts 315°
2026-04-27 16:35 14.58259 -93.05261 33948 ft 427 kts 315°
2026-04-27 16:36 14.64298 -93.11985 33941 ft 427 kts 315°
2026-04-27 16:36 14.68342 -93.16481 33941 ft 427 kts 315°
2026-04-27 16:37 14.72378 -93.20985 33943 ft 427 kts 315°
2026-04-27 16:37 14.76392 -93.25454 33941 ft 426 kts 315°
2026-04-27 16:38 14.80425 -93.29952 33937 ft 426 kts 315°
2026-04-27 16:38 14.84460 -93.34457 33938 ft 427 kts 315°
2026-04-27 16:39 14.88493 -93.38964 33939 ft 427 kts 315°
2026-04-27 16:39 14.92526 -93.43478 33956 ft 427 kts 314°
2026-04-27 16:40 14.96519 -93.47962 33957 ft 426 kts 314°
2026-04-27 16:40 15.00537 -93.52456 33957 ft 425 kts 314°
2026-04-27 16:41 15.04557 -93.56946 33955 ft 424 kts 314°
2026-04-27 16:41 15.08560 -93.61431 33952 ft 424 kts 314°
2026-04-27 16:42 15.12563 -93.65928 33951 ft 424 kts 314°
2026-04-27 16:42 15.16603 -93.70329 33948 ft 424 kts 315°
2026-04-27 16:43 15.20749 -93.74683 33947 ft 424 kts 316°
2026-04-27 16:43 15.24892 -93.79031 33947 ft 424 kts 315°
2026-04-27 16:44 15.29015 -93.83406 33939 ft 424 kts 315°
2026-04-27 16:44 15.33098 -93.87769 33936 ft 425 kts 315°
2026-04-27 16:45 15.37219 -93.92173 33938 ft 425 kts 315°
2026-04-27 16:45 15.40643 -93.95828 33937 ft 425 kts 315°
2026-04-27 16:46 15.44774 -94.00233 33937 ft 426 kts 315°
2026-04-27 16:46 15.48905 -94.04639 33938 ft 426 kts 315°
2026-04-27 16:47 15.53031 -94.09046 33939 ft 426 kts 315°
2026-04-27 16:47 15.57162 -94.13462 33943 ft 426 kts 315°
2026-04-27 16:48 15.61264 -94.17849 33950 ft 426 kts 315°
2026-04-27 16:48 15.65395 -94.22264 33936 ft 427 kts 315°
2026-04-27 16:49 15.71611 -94.28911 33928 ft 428 kts 315°
2026-04-27 16:49 15.75751 -94.33364 33930 ft 428 kts 315°
2026-04-27 16:50 15.79896 -94.37811 33927 ft 429 kts 315°
2026-04-27 16:50 15.84021 -94.42236 33934 ft 429 kts 315°
2026-04-27 16:51 15.88175 -94.46692 33935 ft 429 kts 315°
2026-04-27 16:51 15.92327 -94.51155 33936 ft 429 kts 315°
2026-04-27 16:52 15.96480 -94.55617 33945 ft 429 kts 315°
2026-04-27 16:52 16.00627 -94.60075 33933 ft 429 kts 315°
2026-04-27 16:53 16.04760 -94.64524 33926 ft 430 kts 315°
2026-04-27 16:53 16.08923 -94.69004 33926 ft 431 kts 315°
2026-04-27 16:54 16.13082 -94.73499 33922 ft 431 kts 315°
2026-04-27 16:54 16.17247 -94.77998 33923 ft 431 kts 315°
2026-04-27 16:55 16.21419 -94.82488 33931 ft 431 kts 315°
2026-04-27 16:55 16.25588 -94.86987 33931 ft 431 kts 315°
2026-04-27 16:56 16.29733 -94.91464 33932 ft 432 kts 315°
2026-04-27 16:56 16.33896 -94.95967 33932 ft 431 kts 315°
2026-04-27 16:57 16.38055 -95.00472 33931 ft 431 kts 315°
2026-04-27 16:57 16.42215 -95.04978 33931 ft 431 kts 315°
2026-04-27 16:58 16.46257 -95.09552 33930 ft 432 kts 308°
2026-04-27 16:58 16.49359 -95.14924 33930 ft 433 kts 301°
2026-04-27 16:59 16.52351 -95.20377 33923 ft 433 kts 301°
2026-04-27 16:59 16.55343 -95.25832 33922 ft 433 kts 301°
2026-04-27 17:00 16.59825 -95.34013 33914 ft 433 kts 301°
2026-04-27 17:01 16.62785 -95.39439 33918 ft 433 kts 301°
2026-04-27 17:01 16.65759 -95.44899 33919 ft 432 kts 301°
2026-04-27 17:02 16.68737 -95.50350 33917 ft 432 kts 301°
2026-04-27 17:02 16.71712 -95.55804 33909 ft 432 kts 301°
2026-04-27 17:03 16.74662 -95.61229 33909 ft 432 kts 301°
2026-04-27 17:03 16.77626 -95.66686 33911 ft 432 kts 301°
2026-04-27 17:04 16.80594 -95.72142 33915 ft 431 kts 301°
2026-04-27 17:04 16.83541 -95.77550 33909 ft 431 kts 302°
2026-04-27 17:05 16.86495 -95.82990 33913 ft 430 kts 302°
2026-04-27 17:05 16.89438 -95.88425 33914 ft 430 kts 302°
2026-04-27 17:06 16.92389 -95.93869 33921 ft 430 kts 302°
2026-04-27 17:06 16.95312 -95.99270 33918 ft 430 kts 301°
2026-04-27 17:07 16.98252 -96.04706 33927 ft 429 kts 301°
2026-04-27 17:07 17.01190 -96.10142 33948 ft 429 kts 301°
2026-04-27 17:08 17.04130 -96.15583 33948 ft 429 kts 301°
2026-04-27 17:08 17.07064 -96.21013 33950 ft 429 kts 301°
2026-04-27 17:09 17.09972 -96.26412 33952 ft 428 kts 301°
2026-04-27 17:09 17.12901 -96.31843 33951 ft 428 kts 301°
2026-04-27 17:10 17.15821 -96.37275 33956 ft 429 kts 301°
2026-04-27 17:10 17.18747 -96.42713 33954 ft 429 kts 301°
2026-04-27 17:11 17.21671 -96.48150 33950 ft 429 kts 301°
2026-04-27 17:11 17.26051 -96.56308 34006 ft 429 kts 301°
2026-04-27 17:12 17.30420 -96.64438 34006 ft 428 kts 301°
2026-04-27 17:13 17.33334 -96.69875 33971 ft 428 kts 301°
2026-04-27 17:13 17.36242 -96.75307 33933 ft 427 kts 301°
2026-04-27 17:14 17.39153 -96.80734 33935 ft 427 kts 301°
2026-04-27 17:14 17.42053 -96.86156 33930 ft 427 kts 301°
2026-04-27 17:15 17.44954 -96.91587 33928 ft 427 kts 300°
2026-04-27 17:15 17.47831 -96.96984 33931 ft 427 kts 301°
2026-04-27 17:16 17.50731 -97.02413 33935 ft 427 kts 301°
2026-04-27 17:16 17.53627 -97.07841 33934 ft 426 kts 300°
2026-04-27 17:17 17.56518 -97.13273 33937 ft 426 kts 300°
2026-04-27 17:17 17.59480 -97.18659 33945 ft 425 kts 307°
2026-04-27 17:18 17.65604 -97.25291 33940 ft 423 kts 316°
2026-04-27 17:18 17.69846 -97.29573 33948 ft 423 kts 316°
2026-04-27 17:19 17.74093 -97.33860 33950 ft 423 kts 316°
2026-04-27 17:19 17.78329 -97.38153 33935 ft 423 kts 316°
2026-04-27 17:20 17.82536 -97.42411 33938 ft 423 kts 316°
2026-04-27 17:20 17.86779 -97.46692 33934 ft 422 kts 316°
2026-04-27 17:21 17.91016 -97.50979 33921 ft 422 kts 316°
2026-04-27 17:21 17.95250 -97.55267 33920 ft 423 kts 316°
2026-04-27 17:22 17.99484 -97.59558 33919 ft 423 kts 316°
2026-04-27 17:22 18.03684 -97.63822 33905 ft 422 kts 316°
2026-04-27 17:23 18.07914 -97.68120 33912 ft 423 kts 316°
2026-04-27 17:23 18.12146 -97.72412 33913 ft 422 kts 316°
2026-04-27 17:24 18.16374 -97.76704 33903 ft 422 kts 316°
2026-04-27 17:24 18.20600 -97.81005 33902 ft 422 kts 316°
2026-04-27 17:25 18.24795 -97.85276 33901 ft 422 kts 316°
2026-04-27 17:25 18.29019 -97.89575 33893 ft 422 kts 316°
2026-04-27 17:26 18.33228 -97.93872 33891 ft 421 kts 316°
2026-04-27 17:26 18.37436 -97.98162 33874 ft 421 kts 316°
2026-04-27 17:27 18.41651 -98.02463 33884 ft 422 kts 316°
2026-04-27 17:27 18.45873 -98.06767 33867 ft 422 kts 316°
2026-04-27 17:28 18.50071 -98.11055 33866 ft 423 kts 316°
2026-04-27 17:29 18.56409 -98.17536 33884 ft 423 kts 316°
2026-04-27 17:29 18.60634 -98.21856 33883 ft 423 kts 316°
2026-04-27 17:30 18.64860 -98.26184 33886 ft 423 kts 316°
2026-04-27 17:30 18.70869 -98.32896 33906 ft 422 kts 301°
2026-04-27 17:31 18.72081 -98.35715 33893 ft 423 kts 288°
2026-04-27 17:31 18.72716 -98.38754 33890 ft 425 kts 283°
2026-04-27 17:31 18.73830 -98.44881 33882 ft 425 kts 283°
2026-04-27 17:32 18.75520 -98.54089 33885 ft 426 kts 283°
2026-04-27 17:33 18.76636 -98.60190 33886 ft 426 kts 283°
2026-04-27 17:33 18.77753 -98.66344 33885 ft 426 kts 283°
2026-04-27 17:34 18.78866 -98.72499 33918 ft 426 kts 282°
2026-04-27 17:34 18.79987 -98.78647 33922 ft 427 kts 282°
2026-04-27 17:35 18.80932 -98.83755 33918 ft 426 kts 283°
2026-04-27 17:35 18.82220 -98.89870 33936 ft 426 kts 284°
2026-04-27 17:36 18.83781 -98.96961 33994 ft 426 kts 284°
2026-04-27 17:36 18.84844 -99.02048 34040 ft 427 kts 283°
2026-04-27 17:37 18.85929 -99.08211 34097 ft 427 kts 282°
2026-04-27 17:37 18.87049 -99.14366 34135 ft 425 kts 291°
2026-04-27 17:37 18.88429 -99.17104 34155 ft 423 kts 305°
2026-04-27 17:38 18.90136 -99.19630 34160 ft 423 kts 306°
2026-04-27 17:38 18.94371 -99.23818 34136 ft 425 kts 336°
2026-04-27 17:38 18.97261 -99.24469 34111 ft 430 kts 358°
2026-04-27 17:39 19.00179 -99.23938 33920 ft 438 kts 19°
2026-04-27 17:39 19.02800 -99.22256 33941 ft 447 kts 40°
2026-04-27 17:39 19.04791 -99.19712 33940 ft 453 kts 54°
2026-04-27 17:40 19.08015 -99.13926 33947 ft 458 kts 56°
2026-04-27 17:40 19.11549 -99.08337 34016 ft 455 kts 47°
2026-04-27 17:40 19.13551 -99.05813 34060 ft 439 kts 44°
2026-04-27 17:41 19.15694 -99.03625 34086 ft 417 kts 28°
2026-04-27 17:41 19.18215 -99.02453 34126 ft 390 kts
2026-04-27 17:41 19.20822 -99.02460 34163 ft 365 kts 342°
2026-04-27 17:41 19.23050 -99.03602 34197 ft 353 kts 317°
2026-04-27 17:42 19.24640 -99.05555 34227 ft 352 kts 297°
2026-04-27 17:42 19.25351 -99.08015 34230 ft 354 kts 275°
2026-04-27 17:42 19.25450 -99.10635 34223 ft 356 kts 279°
2026-04-27 17:43 19.26885 -99.15620 34230 ft 355 kts 299°
2026-04-27 17:43 19.28435 -99.17577 34235 ft 354 kts 324°
2026-04-27 17:43 19.30653 -99.18734 34257 ft 359 kts 336°
2026-04-27 17:44 19.35442 -99.20220 34275 ft 366 kts
2026-04-27 17:44 19.37925 -99.19554 34307 ft 376 kts 25°
2026-04-27 17:44 19.39972 -99.17788 34337 ft 388 kts 50°
2026-04-27 17:44 19.41252 -99.15241 34363 ft 398 kts 68°
2026-04-27 17:45 19.42143 -99.12447 34358 ft 400 kts 68°
2026-04-27 17:45 19.43864 -99.06869 34355 ft 403 kts 74°
2026-04-27 17:46 19.44744 -99.00983 34357 ft 405 kts 79°
2026-04-27 17:46 19.45196 -98.95027 34321 ft 408 kts 89°
2026-04-27 17:46 19.45012 -98.92024 34278 ft 409 kts 101°
2026-04-27 17:47 19.43973 -98.89234 34255 ft 409 kts 126°
2026-04-27 17:47 19.42750 -98.87728 34243 ft 407 kts 142°
2026-04-27 17:47 19.39517 -98.85790 34213 ft 404 kts 163°
2026-04-27 17:47 19.36807 -98.85093 34185 ft 397 kts 183°
2026-04-27 17:48 19.34107 -98.85442 34187 ft 389 kts 200°
2026-04-27 17:48 19.29227 -98.87754 34179 ft 383 kts 214°
2026-04-27 17:48 19.27003 -98.89276 34170 ft 376 kts 228°
2026-04-27 17:49 19.25479 -98.91436 34185 ft 363 kts 250°
2026-04-27 17:49 19.24757 -98.93968 34191 ft 358 kts 264°
2026-04-27 17:49 19.24536 -98.96585 34199 ft 357 kts 271°
2026-04-27 17:50 19.24533 -99.01809 34227 ft 357 kts 272°
2026-04-27 17:50 19.24119 -99.09702 34214 ft 359 kts 268°
2026-04-27 17:51 19.23694 -99.14964 34205 ft 359 kts 268°
2026-04-27 17:51 19.23271 -99.20228 34172 ft 359 kts 268°
2026-04-27 17:52 19.22853 -99.25492 34142 ft 359 kts 268°
2026-04-27 17:52 19.22435 -99.30755 34097 ft 359 kts 268°
2026-04-27 17:53 19.22023 -99.36013 34050 ft 358 kts 268°
2026-04-27 17:53 19.21816 -99.38610 34278 ft 359 kts 268°
2026-04-27 17:53 19.21598 -99.41245 34308 ft 359 kts 268°
2026-04-27 17:54 19.21165 -99.46516 34358 ft 359 kts 267°
2026-04-27 17:54 19.20748 -99.51795 34387 ft 359 kts 268°
2026-04-27 17:55 19.20337 -99.57072 34393 ft 360 kts 268°
2026-04-27 17:55 19.19930 -99.62314 34373 ft 359 kts 268°
2026-04-27 17:56 19.19521 -99.67587 34332 ft 360 kts 268°
2026-04-27 17:56 19.19115 -99.72862 34276 ft 360 kts 268°
2026-04-27 17:57 19.18710 -99.78136 34217 ft 359 kts 268°
2026-04-27 17:57 19.18308 -99.83413 34134 ft 360 kts 268°
2026-04-27 17:58 19.17923 -99.88690 34073 ft 360 kts 268°
2026-04-27 17:58 19.17548 -99.93943 34044 ft 360 kts 268°
2026-04-27 17:59 19.17173 -99.99224 34019 ft 360 kts 268°
2026-04-27 17:59 19.16801 -100.04503 34019 ft 360 kts 268°
2026-04-27 18:00 19.16433 -100.09744 34027 ft 359 kts 268°
2026-04-27 18:00 19.16065 -100.15015 33982 ft 359 kts 268°
2026-04-27 18:01 19.15698 -100.20294 33980 ft 360 kts 268°
2026-04-27 18:01 19.15353 -100.25570 33980 ft 359 kts 268°
2026-04-27 18:02 19.15016 -100.30806 33942 ft 358 kts 268°
2026-04-27 18:02 19.14681 -100.36058 33942 ft 357 kts 268°
2026-04-27 18:03 19.14348 -100.41306 33939 ft 357 kts 268°
2026-04-27 18:03 19.14014 -100.46542 33915 ft 357 kts 268°
2026-04-27 18:04 19.13685 -100.51790 33912 ft 357 kts 268°
2026-04-27 18:04 19.13359 -100.57001 33910 ft 357 kts 268°
2026-04-27 18:05 19.13037 -100.62242 33896 ft 357 kts 268°
2026-04-27 18:05 19.12718 -100.67484 33896 ft 357 kts 268°
2026-04-27 18:06 19.12404 -100.72714 33896 ft 356 kts 268°
2026-04-27 18:06 19.12093 -100.77949 33893 ft 357 kts 268°
2026-04-27 18:07 19.11784 -100.83179 33896 ft 356 kts 268°
2026-04-27 18:07 19.11478 -100.88380 33900 ft 357 kts 268°
2026-04-27 18:08 19.11176 -100.93609 33901 ft 356 kts 268°
2026-04-27 18:08 19.10869 -100.98854 33899 ft 357 kts 268°
2026-04-27 18:09 19.10565 -101.04057 33914 ft 357 kts 268°
2026-04-27 18:09 19.10263 -101.09301 33914 ft 357 kts 268°
2026-04-27 18:10 19.09964 -101.14537 33911 ft 357 kts 268°
2026-04-27 18:10 19.09673 -101.19778 33910 ft 356 kts 268°
2026-04-27 18:11 19.09378 -101.24980 33913 ft 357 kts 268°
2026-04-27 18:11 19.09082 -101.30223 33915 ft 357 kts 269°
2026-04-27 18:12 19.08792 -101.35459 33922 ft 356 kts 268°
2026-04-27 18:12 19.08512 -101.40684 33924 ft 356 kts 269°
2026-04-27 18:13 19.08230 -101.45909 33940 ft 356 kts 268°
2026-04-27 18:13 19.07950 -101.51139 33940 ft 356 kts 268°
2026-04-27 18:14 19.07674 -101.56337 33940 ft 356 kts 269°
2026-04-27 18:14 19.07394 -101.61573 33939 ft 356 kts 269°
2026-04-27 18:15 19.07120 -101.66803 33940 ft 356 kts 269°
2026-04-27 18:15 19.06848 -101.71996 33939 ft 356 kts 269°
2026-04-27 18:16 19.06577 -101.77222 33926 ft 356 kts 269°
2026-04-27 18:16 19.06309 -101.82442 33926 ft 356 kts 269°
2026-04-27 18:17 19.06044 -101.87667 33925 ft 356 kts 269°
2026-04-27 18:17 19.05779 -101.92897 33917 ft 356 kts 269°
2026-04-27 18:18 19.05520 -101.98094 33931 ft 355 kts 269°
2026-04-27 18:18 19.05259 -102.03302 33932 ft 354 kts 269°
2026-04-27 18:19 19.04999 -102.08505 33913 ft 354 kts 269°
2026-04-27 18:19 19.04740 -102.13709 33898 ft 354 kts 269°
2026-04-27 18:20 19.04481 -102.18910 33892 ft 354 kts 269°
2026-04-27 18:20 19.04224 -102.24112 33894 ft 354 kts 269°
2026-04-27 18:21 19.03971 -102.29283 33892 ft 354 kts 269°
2026-04-27 18:21 19.03720 -102.34489 33891 ft 354 kts 269°
2026-04-27 18:22 19.03470 -102.39689 33888 ft 354 kts 269°
2026-04-27 18:22 19.03228 -102.44885 33886 ft 354 kts 269°
2026-04-27 18:23 19.02991 -102.50086 33886 ft 354 kts 269°
2026-04-27 18:23 19.02759 -102.55245 33885 ft 354 kts 269°